Theta_e
303 303 303 303 304 304 304 304 304 304 304 304 304 304 304 304 305 305 305 305 305 306 306 307 307 307 312 317 319 320 320 320 319 318 318 318 316 316 318 320 319 318 320 322 320 319 318 318 318 326 340 349 352 353 354 357 356 354 358 360 356 356 355 354 354 350 352 349 349 350 350 353 352 351 350 351 352 352 352 351 352 352 353 353 353 352 351 352
303 303 303 303 303 303 304 304 304 304 304 304 304 304 304 304 305 305 305 305 305 305 306 307 307 306 308 314 318 320 320 320 320 320 321 320 318 316 316 318 319 318 320 320 321 319 317 316 318 331 339 344 350 352 354 356 356 354 358 359 354 355 354 351 351 348 348 348 349 350 349 351 352 351 351 353 353 352 352 351 351 353 353 353 353 353 353 354
303 303 303 303 304 304 304 304 304 304 304 304 304 304 304 304 305 305 305 305 305 305 305 307 307 307 307 311 316 319 320 319 319 321 323 322 320 318 315 317 318 318 319 319 320 318 318 315 318 332 337 338 345 350 352 354 355 352 355 357 353 352 351 348 348 347 348 348 350 351 350 349 349 350 352 353 353 353 351 350 351 353 353 353 354 353 354 354
303 303 303 303 304 304 304 304 304 304 304 304 304 304 304 304 305 305 305 305 305 305 305 306 307 308 307 310 315 319 319 319 321 323 325 323 320 318 317 317 317 318 319 318 319 317 318 316 319 331 333 333 339 345 349 351 352 350 352 354 351 348 349 349 347 346 347 347 349 350 348 348 348 349 351 353 354 354 352 350 351 353 353 352 353 354 354 353
303 303 303 303 304 304 304 304 304 304 304 304 304 304 304 304 304 304 305 305 305 305 305 306 307 308 309 311 315 318 318 320 324 323 324 324 323 318 317 318 317 319 318 318 317 316 322 321 322 332 332 332 336 340 345 347 350 349 349 350 348 347 349 349 345 346 347 346 348 348 347 347 347 348 348 352 355 355 352 350 351 352 353 352 353 352 353 353
303 304 303 304 304 304 304 304 304 305 305 305 305 305 305 304 304 305 305 305 305 305 305 305 307 310 312 313 315 317 319 322 325 324 323 323 324 319 318 319 318 318 318 319 316 317 329 329 327 332 333 334 336 339 343 346 349 349 348 347 347 347 347 348 346 345 345 345 348 346 347 347 346 347 348 349 352 352 351 351 350 351 352 352 352 352 353 353
304 304 304 304 304 305 305 305 305 305 305 305 305 305 305 305 304 304 305 305 305 305 305 305 307 311 314 314 316 317 317 321 324 324 324 322 322 320 318 318 317 318 318 319 316 320 332 333 330 333 333 334 336 338 341 344 347 348 347 345 345 347 346 348 348 346 344 346 348 346 347 346 346 348 348 348 349 350 351 350 350 351 352 352 352 352 352 353
304 304 304 304 304 305 305 305 305 305 305 305 305 305 305 305 305 305 305 306 306 305 305 305 307 311 315 315 316 316 316 322 324 325 323 320 322 320 318 319 318 317 318 319 316 321 330 330 329 332 333 334 335 337 340 342 345 346 347 345 345 345 347 346 347 345 345 346 347 346 346 347 346 348 347 346 349 350 351 350 350 351 351 352 352 352 352 353
304 304 305 304 305 305 305 305 305 305 306 306 306 305 306 306 306 307 307 307 307 307 305 305 307 310 314 315 316 319 321 323 324 324 323 320 321 320 319 318 317 317 318 318 316 319 327 327 327 331 332 334 335 336 337 341 345 345 346 346 343 344 347 347 345 346 346 346 347 348 349 346 346 347 347 347 350 351 350 350 351 351 351 351 352 352 352 353
304 304 304 305 305 305 305 306 305 305 306 306 306 306 307 307 308 309 310 309 310 309 307 305 306 309 313 316 317 321 324 323 324 324 323 319 319 320 320 319 318 318 317 318 317 320 325 326 326 327 329 332 335 336 336 340 343 344 345 345 344 344 345 345 345 345 346 347 346 348 347 345 345 347 347 347 351 351 351 351 350 351 351 351 352 351 352 352
304 304 304 305 305 305 305 306 305 305 306 306 306 306 308 309 311 312 312 312 312 312 310 308 307 308 312 316 317 320 322 323 325 324 322 322 320 319 319 320 318 318 317 318 317 319 324 326 326 326 328 330 334 336 337 339 341 343 342 341 341 341 344 345 345 345 347 348 346 347 346 345 346 346 347 348 351 351 350 351 351 351 351 351 351 351 352 352
304 304 305 305 305 305 305 305 305 306 306 306 306 308 309 310 311 312 312 312 313 312 312 312 310 307 311 314 316 318 319 323 325 324 324 324 323 320 319 320 319 319 319 318 318 319 320 326 326 325 328 331 334 336 336 338 339 342 340 338 337 339 342 345 344 345 347 347 345 346 346 346 346 346 347 350 352 351 351 350 351 351 351 351 351 352 352 351
304 304 305 304 305 305 305 305 305 306 306 306 307 309 310 309 310 310 311 313 315 316 315 315 313 310 311 314 316 314 316 318 319 320 322 325 324 323 321 320 320 320 320 319 321 319 319 325 326 324 326 328 332 336 336 336 337 338 338 337 336 337 341 343 344 345 345 347 346 345 347 348 347 345 347 351 352 351 351 351 351 351 351 351 352 351 351 351
304 305 305 305 305 305 305 305 305 306 305 307 310 311 310 309 309 309 312 315 317 320 320 318 314 312 313 314 311 313 313 313 315 318 323 325 325 324 322 321 321 320 321 321 321 320 319 324 324 322 324 324 328 333 334 334 335 336 335 336 337 334 338 343 343 345 345 345 346 346 345 349 347 344 349 351 351 351 351 351 351 350 350 350 351 351 350 351
304 304 304 305 305 305 305 305 305 305 306 309 312 311 310 310 308 309 316 318 316 314 315 317 314 313 316 317 310 314 316 316 317 321 325 324 325 325 323 322 322 320 322 324 323 320 319 321 322 322 324 325 327 330 331 332 334 335 332 333 336 335 339 345 342 344 346 345 345 345 343 346 347 345 349 351 351 351 351 351 351 350 351 350 349 350 349 350
304 304 304 305 305 305 305 305 305 305 306 311 313 311 310 310 307 312 320 319 312 308 311 319 319 319 321 322 317 319 321 321 322 323 324 325 325 326 324 323 323 322 323 326 323 320 319 320 322 323 324 327 329 330 330 330 331 335 332 330 334 335 337 342 342 342 345 345 345 344 344 345 347 347 349 350 351 351 351 351 351 350 350 351 349 350 350 350
304 304 304 304 305 305 305 305 305 305 307 311 313 311 310 310 308 313 321 318 311 308 312 320 323 322 325 323 319 320 322 325 325 324 324 325 326 325 325 325 323 323 324 326 324 321 321 323 325 327 329 330 330 329 328 326 327 332 332 330 334 337 336 336 341 343 344 346 345 344 346 344 345 346 347 349 350 350 351 350 350 350 349 350 350 350 350 350
304 304 304 304 305 305 304 305 305 305 308 312 313 310 309 309 307 314 320 314 308 309 315 323 323 322 323 319 320 322 323 325 324 324 324 325 326 325 325 325 325 324 325 326 325 324 324 326 329 330 331 330 329 329 326 325 326 328 329 329 331 335 335 335 339 341 344 347 347 345 346 344 343 346 347 348 349 349 350 350 349 350 350 350 350 350 350 350
304 304 304 304 304 305 304 305 305 306 309 312 312 309 309 308 308 315 318 310 307 309 313 321 323 321 319 318 320 321 322 322 323 325 325 325 325 325 326 325 325 325 325 325 325 325 326 327 329 330 331 331 330 328 326 328 331 331 331 331 329 330 333 337 339 341 342 344 346 345 345 344 343 346 346 346 349 349 348 350 350 350 349 350 350 350 350 350
304 304 304 304 304 304 304 304 305 306 310 313 311 309 309 308 308 312 312 307 307 308 308 312 315 317 316 313 313 313 316 318 320 324 326 325 325 324 325 324 324 325 325 326 326 326 327 328 329 329 330 331 330 328 328 330 332 332 332 331 331 330 330 335 338 339 340 341 343 344 345 344 343 345 346 345 346 347 347 349 349 350 350 349 350 350 350 350
304 304 304 304 304 304 304 304 305 307 312 312 309 309 308 308 308 308 308 308 308 309 309 309 309 311 311 309 309 310 312 315 319 323 325 325 324 324 325 324 324 325 325 325 326 327 327 328 328 329 330 330 329 328 328 329 330 331 331 330 331 330 331 334 335 337 339 340 340 343 344 343 343 344 345 346 346 346 346 348 349 349 349 350 351 350 350 350
304 304 304 303 304 304 304 304 304 308 312 312 309 309 308 308 308 308 308 308 309 309 309 310 309 309 310 309 310 310 311 313 316 322 324 323 324 324 324 323 323 325 325 325 326 328 327 327 327 329 330 329 329 328 328 329 328 328 329 328 328 329 331 333 334 335 336 337 338 341 343 342 343 344 346 346 346 346 346 347 348 348 348 350 350 350 350 350
304 304 304 303 303 304 304 304 305 307 310 311 310 309 308 307 307 308 308 308 309 311 312 312 311 311 311 310 311 311 312 312 312 319 323 321 322 323 323 322 322 325 327 325 326 326 325 326 328 329 330 330 329 328 328 328 327 327 327 325 324 329 330 328 331 333 334 336 338 340 341 341 341 345 346 346 345 347 346 347 347 347 347 349 350 350 351 349
304 303 303 303 303 304 304 304 306 307 308 309 308 307 306 306 307 308 309 308 308 311 314 315 313 313 313 313 312 311 312 312 311 317 323 321 321 323 322 322 322 324 327 326 325 326 326 328 328 329 330 331 329 328 329 327 326 327 327 325 324 328 330 329 331 332 331 334 337 338 337 337 340 345 347 345 345 346 346 347 346 346 347 348 350 350 350 350
304 303 303 303 303 303 304 305 306 307 308 307 306 305 305 306 308 308 308 309 310 313 316 317 315 314 313 314 313 313 313 313 312 315 320 321 322 322 321 322 321 323 327 327 326 326 327 328 329 328 329 330 330 330 328 326 324 324 326 327 326 329 331 332 334 331 326 327 335 338 330 332 340 345 347 346 346 346 345 346 346 346 347 348 350 350 350 350
304 303 304 303 303 304 304 305 306 305 307 306 305 305 306 307 308 308 308 311 315 318 317 316 316 314 314 314 313 313 313 313 314 314 316 319 321 322 321 321 322 324 328 328 327 327 328 328 329 328 329 330 330 330 329 328 325 322 326 328 328 329 331 332 332 328 324 324 333 338 331 330 335 341 347 346 346 347 345 346 346 345 346 348 349 350 350 351
305 303 303 303 304 306 306 306 305 305 306 306 306 306 307 308 308 308 311 317 321 320 315 314 314 313 313 313 313 314 314 314 315 316 316 319 321 321 320 321 322 325 328 330 327 328 329 331 330 329 329 329 329 330 331 330 325 323 327 328 328 329 329 331 330 327 327 328 331 336 333 329 328 335 345 346 345 347 346 347 347 345 345 347 348 349 350 350
306 304 303 303 305 306 307 306 306 306 306 306 306 307 308 308 308 309 316 323 322 315 312 312 313 312 312 313 314 315 315 314 315 317 320 322 320 320 320 319 321 325 328 329 327 329 330 331 331 330 329 328 328 330 331 331 328 328 330 331 330 330 330 332 330 328 328 325 325 330 331 329 327 333 342 345 344 346 347 347 346 347 346 346 348 349 350 349
307 304 303 304 306 307 307 307 307 306 306 307 307 308 308 308 309 312 319 323 317 311 311 311 311 312 311 312 314 314 316 315 316 317 320 321 321 320 321 320 320 324 327 328 328 330 331 330 330 330 330 329 329 330 331 331 330 330 332 332 331 332 332 332 330 328 325 323 322 325 327 326 327 333 337 340 343 344 346 347 346 346 346 347 348 349 350 350
308 304 303 306 307 308 308 307 307 307 308 308 308 309 309 309 314 318 322 321 314 310 311 311 310 311 311 311 312 313 314 315 315 316 317 319 321 320 321 321 320 322 325 328 329 330 330 330 330 330 330 329 329 330 330 330 331 331 332 332 331 331 332 332 331 328 323 322 321 323 325 324 326 333 336 337 341 343 344 347 346 346 346 347 349 348 350 351
309 305 304 308 310 309 309 308 307 308 309 309 309 309 309 312 317 319 319 315 311 310 310 310 310 310 310 311 311 312 313 313 314 315 317 318 321 321 321 322 321 321 323 324 325 328 329 329 330 331 330 330 329 328 330 330 330 331 331 330 328 327 327 325 326 325 322 323 325 325 326 320 321 333 342 338 340 342 344 345 347 346 346 346 348 350 350 351
309 306 305 309 311 310 310 309 308 309 309 309 309 309 310 314 316 314 313 311 310 310 310 309 309 309 310 311 310 311 312 312 313 314 315 316 320 322 322 322 321 319 319 320 322 325 327 328 329 329 330 331 328 326 328 330 331 331 329 327 324 322 322 321 322 322 321 325 331 328 324 320 323 339 348 341 338 340 342 344 345 346 346 347 348 349 350 351
309 306 306 310 312 310 311 310 308 308 308 309 310 309 310 315 315 311 310 310 310 309 309 309 309 309 310 310 310 310 311 311 312 313 315 315 317 321 322 323 323 321 320 320 319 320 322 325 327 327 327 329 329 325 324 326 328 328 326 323 321 321 321 321 323 322 320 324 328 324 321 322 324 335 341 341 338 336 338 342 343 345 346 346 348 349 351 352
309 307 307 310 312 311 311 310 308 308 308 309 310 310 311 313 313 310 309 309 309 309 309 308 308 309 310 310 310 310 309 310 311 312 314 314 315 318 320 321 322 321 321 320 319 318 318 320 324 325 326 327 328 326 325 327 327 327 327 325 322 322 322 323 322 319 320 324 324 320 321 321 323 332 342 340 335 332 337 342 343 345 347 346 348 349 350 352
310 308 309 311 311 310 311 310 308 308 309 309 310 313 313 311 311 310 309 309 308 308 308 308 308 309 309 310 310 309 309 309 311 312 312 312 314 317 318 318 319 318 319 320 319 319 317 318 322 325 325 325 328 326 327 328 325 326 328 324 321 324 327 326 324 323 324 323 321 320 323 326 330 340 342 335 333 331 336 344 343 344 347 347 348 350 349 351
310 310 310 311 311 311 310 310 308 307 308 309 311 313 313 312 311 309 308 308 308 307 307 308 308 308 308 309 309 309 309 309 310 311 311 312 314 317 316 316 316 315 316 317 318 319 317 318 321 324 325 324 326 327 326 327 326 326 325 322 324 328 326 323 323 326 324 321 322 323 323 327 327 330 332 329 332 335 337 344 346 344 347 347 348 350 350 351
310 310 311 311 312 311 310 310 309 308 308 309 312 313 313 310 309 308 308 308 307 307 307 308 308 308 308 308 308 308 309 310 310 310 310 312 314 316 315 315 315 314 314 315 317 319 319 320 322 323 325 323 324 326 326 327 328 326 322 322 327 328 325 326 325 324 321 320 323 322 320 323 322 326 337 332 329 332 336 344 349 345 347 349 349 351 351 351
309 310 311 312 311 310 310 310 309 308 309 310 314 315 312 308 308 308 308 307 307 307 308 307 308 308 307 308 308 308 309 310 310 310 310 311 313 314 314 313 313 313 313 314 316 319 320 321 323 322 325 324 324 325 324 326 327 327 325 326 328 323 320 324 325 322 320 318 322 322 320 323 322 326 336 329 327 332 331 339 348 348 346 348 349 350 351 351
308 309 311 311 310 309 309 309 309 308 309 311 314 313 310 307 308 308 308 308 308 307 307 307 308 308 308 307 307 308 309 309 309 310 310 311 312 314 314 312 312 312 313 313 315 317 320 323 324 324 324 325 324 323 321 322 325 327 325 327 329 325 320 322 322 322 323 321 321 321 320 323 326 329 332 327 328 331 328 335 347 349 347 348 349 350 351 351
307 310 311 311 310 310 310 309 309 308 311 313 313 310 309 308 309 309 308 308 308 307 308 307 307 307 308 307 307 308 308 308 309 309 310 311 313 314 313 312 312 312 312 312 314 316 321 324 325 326 325 324 324 323 323 323 325 324 323 322 324 323 323 324 322 322 328 328 324 321 320 324 330 329 328 328 327 328 327 331 344 349 347 348 349 349 350 351
306 308 310 310 310 310 309 309 309 309 312 313 310 308 309 310 309 308 308 308 308 308 308 307 307 307 307 307 307 307 307 308 309 310 311 312 313 314 313 312 312 311 311 312 312 315 320 321 323 325 324 322 324 325 326 326 326 325 323 322 322 322 321 320 321 322 323 329 331 326 322 328 336 330 327 328 327 327 327 327 338 348 348 347 350 349 350 351
306 308 309 309 309 309 309 309 309 308 309 310 308 308 309 309 309 308 308 308 308 308 308 307 307 307 307 307 307 307 307 308 310 311 311 312 312 312 312 312 312 311 311 312 312 314 318 321 322 324 324 323 325 327 326 326 327 328 325 325 325 324 321 317 319 321 317 321 331 328 321 331 350 343 330 328 327 326 327 325 331 344 347 347 349 348 350 350
306 308 309 309 308 308 309 309 309 309 308 309 308 308 308 308 308 308 308 308 308 308 307 307 307 307 307 307 307 308 308 308 310 311 311 311 311 312 312 312 311 311 311 312 312 314 318 320 321 323 325 325 326 328 327 326 327 326 326 327 324 324 323 321 326 328 319 317 321 321 318 330 360 359 337 331 330 326 327 324 328 341 347 347 348 348 350 350
306 307 308 308 308 308 308 309 309 308 309 309 308 308 309 308 309 309 309 308 308 308 307 307 308 308 308 308 308 308 308 310 311 310 310 311 311 312 312 311 311 311 311 312 314 315 317 317 318 323 331 331 325 327 330 330 328 324 327 328 325 326 326 325 331 329 321 318 320 320 320 332 360 365 345 336 331 327 327 326 328 340 345 346 347 348 349 349
306 306 307 307 308 308 308 308 308 308 309 309 308 308 308 308 309 309 308 308 308 308 308 308 308 308 308 308 308 307 308 310 310 310 311 311 311 311 311 311 311 311 311 313 315 315 315 316 316 322 331 331 326 328 330 329 328 327 328 326 326 327 323 323 328 322 320 324 322 319 323 334 353 357 340 333 331 329 329 328 332 341 344 345 347 347 348 349
306 307 307 307 307 307 307 307 308 308 309 309 309 308 308 308 309 309 309 308 308 308 308 308 308 308 308 308 308 307 307 308 309 310 311 311 310 311 311 311 310 310 312 314 314 314 315 315 316 319 324 324 324 325 324 324 325 325 327 327 325 327 324 325 327 321 325 332 324 321 327 330 340 351 341 333 332 330 330 332 336 341 342 344 346 346 347 349
306 307 306 306 307 307 306 307 307 307 308 309 309 308 308 308 308 308 309 308 308 308 308 308 308 308 308 308 308 307 308 308 308 309 311 311 310 310 310 311 311 312 314 313 312 314 314 314 315 316 318 317 317 317 318 320 323 324 326 327 325 327 325 323 323 325 334 331 321 329 338 328 333 351 347 337 335 333 337 340 340 340 343 343 345 346 347 347
306 307 306 305 307 307 306 306 307 307 308 310 310 309 308 309 308 308 309 308 308 308 308 309 309 308 308 308 308 308 309 309 309 310 312 311 310 311 310 310 311 312 312 311 311 313 313 314 314 314 315 313 313 316 319 321 324 326 328 327 325 327 326 323 323 329 337 330 323 335 344 333 335 350 348 345 342 338 343 345 339 340 343 343 344 346 346 347
306 306 305 305 306 306 305 306 307 308 308 310 310 309 309 309 308 308 308 308 308 308 308 309 308 308 308 308 309 309 309 309 309 311 313 312 312 312 312 311 312 312 310 310 311 311 313 314 315 313 313 313 314 317 320 323 327 328 328 330 328 326 326 324 326 331 336 335 335 345 347 339 338 343 346 346 341 338 343 343 338 341 344 342 343 346 347 346
306 305 305 305 306 305 306 306 307 308 308 309 310 310 309 309 308 307 308 308 308 308 308 308 308 308 308 308 309 309 309 309 309 309 310 311 312 314 314 312 311 311 309 309 310 310 312 314 314 313 313 313 316 319 321 322 326 328 330 334 331 328 328 325 326 330 332 333 339 348 346 343 341 342 342 338 334 338 345 341 339 342 343 344 344 345 346 347
306 306 305 305 306 306 306 307 307 308 309 309 310 310 309 309 308 307 308 308 308 309 309 308 308 308 308 308 308 309 309 309 309 308 308 308 309 312 314 313 310 309 309 309 309 310 311 312 313 313 312 314 316 318 319 322 327 330 332 336 333 329 328 327 327 328 329 333 342 345 342 341 339 338 339 338 337 342 343 338 338 342 344 344 344 345 346 347
306 305 305 305 305 306 306 306 306 307 310 310 309 309 309 309 309 309 309 308 308 308 309 308 308 309 309 309 309 309 309 308 308 308 308 308 308 309 310 310 309 308 308 309 310 310 310 312 313 312 313 316 315 314 320 326 329 331 332 331 331 333 338 340 339 338 335 335 340 343 344 344 340 336 338 338 337 339 339 334 335 342 345 345 344 344 345 346
Wind_Speed
22 22 22 22 22 22 22 22 21 21 21 22 22 22 22 22 21 20 20 19 17 16 14 14 14 14 14 14 15 16 17 18 16 21 25 19 14 16 16 13 15 21 22 21 19 18 21 22 21 23 24 23 19 18 18 17 16 11 4 3 3 3 3 4 3 4 6 6 6 12 17 10 6 14 16 13 17 26 22 19 22 15 20 30 32 42 43 41
23 23 23 23 23 23 23 23 23 22 22 23 23 23 23 22 22 20 20 19 17 16 14 13 14 14 14 13 14 16 17 17 18 25 22 12 11 15 20 19 17 21 24 25 23 21 23 25 25 25 24 21 18 19 16 13 16 10 3 2 5 5 4 5 5 6 9 11 10 14 19 15 11 15 17 13 16 21 16 17 22 22 25 28 37 43 40 43
24 24 24 24 24 24 24 24 24 23 23 24 24 24 24 23 22 21 20 19 18 16 14 13 13 14 13 13 14 15 16 17 21 23 12 7 15 16 19 23 22 23 24 25 25 23 22 23 26 27 23 18 17 19 15 12 14 12 6 2 7 8 5 7 7 10 15 19 14 12 16 15 13 14 14 13 15 16 13 17 22 26 31 34 40 43 42 44
24 24 24 24 25 25 25 24 24 24 24 24 24 24 24 24 23 22 20 19 18 17 15 13 13 13 12 12 12 12 14 15 16 12 2 3 13 19 21 24 27 26 24 21 23 23 19 20 25 27 20 14 17 17 13 15 13 10 10 6 8 8 5 11 10 13 21 24 17 15 14 11 15 15 14 16 14 10 14 25 30 34 39 40 41 43 43 42
25 25 25 25 25 25 25 25 25 24 24 24 24 24 24 24 23 22 20 19 18 17 15 13 12 12 12 12 11 10 8 8 4 5 2 1 7 19 25 24 27 27 24 20 23 24 18 20 25 24 17 10 13 13 14 22 15 8 13 16 15 9 4 13 15 13 19 23 19 18 14 13 18 15 17 18 13 9 18 29 35 41 46 44 44 44 42 41
25 25 25 25 25 25 25 25 25 24 24 24 24 24 24 24 23 22 21 18 17 17 15 12 12 11 11 10 9 8 5 4 4 7 3 2 4 17 26 25 25 24 24 22 23 27 21 21 24 20 15 9 10 11 14 23 19 8 10 18 21 18 9 12 19 15 15 17 16 16 16 18 16 11 19 20 14 14 24 33 36 42 47 46 46 45 43 43
25 25 25 25 25 25 25 25 25 24 24 24 24 23 23 23 23 23 21 19 17 17 15 12 11 11 10 8 8 7 11 15 10 9 4 5 5 14 27 26 25 23 25 26 26 29 27 25 24 20 13 7 10 14 16 19 20 13 9 13 19 22 17 15 20 18 16 16 14 17 14 16 16 12 18 18 14 21 28 36 38 41 45 44 45 45 44 44
25 26 25 25 25 25 25 25 25 24 25 24 24 23 23 23 22 22 21 20 18 16 15 12 10 10 9 7 6 6 14 15 6 11 7 7 8 10 25 28 27 27 28 29 29 32 31 27 25 22 11 9 12 14 16 15 14 14 13 15 16 19 22 20 20 19 19 18 15 15 8 14 24 19 16 15 17 27 33 38 40 42 43 42 45 44 43 43
26 26 26 25 25 26 26 25 25 24 25 24 24 23 23 23 21 21 22 21 18 16 15 12 11 9 7 6 4 6 12 7 4 14 10 6 7 6 22 29 28 29 30 30 29 31 30 27 28 24 12 12 16 14 16 11 9 13 17 19 15 15 21 22 20 20 21 20 16 11 5 15 27 18 11 15 23 32 38 40 42 45 43 42 43 43 43 43
26 26 26 26 26 26 26 25 25 25 24 24 23 23 23 22 20 21 22 21 18 16 14 11 11 9 8 6 5 4 6 3 8 16 14 9 7 7 16 27 29 30 30 30 29 31 32 28 29 27 16 14 16 16 16 12 11 16 19 20 19 17 19 21 21 21 20 18 18 14 7 15 25 15 5 15 30 37 40 41 43 45 43 42 41 41 43 43
26 26 27 27 26 26 26 26 25 25 25 24 23 23 23 21 18 20 21 20 18 16 15 13 11 11 9 8 11 8 5 5 6 13 13 10 11 11 13 20 27 30 30 30 30 31 33 30 28 24 15 12 15 15 17 21 20 20 18 15 17 18 16 19 18 18 17 13 21 19 7 13 20 12 8 22 37 40 41 41 42 43 41 41 40 40 42 43
27 27 27 27 27 27 27 26 26 25 25 24 23 23 21 18 17 19 21 20 19 17 17 15 11 12 10 13 19 9 2 7 6 6 7 9 12 13 12 15 22 27 29 31 30 29 31 31 28 22 14 10 10 8 11 21 23 22 18 10 11 13 11 16 15 18 16 10 21 20 4 8 12 9 16 32 40 41 42 40 40 40 40 41 40 38 39 42
28 28 27 28 28 28 28 27 26 26 24 23 23 22 19 18 18 21 22 20 18 16 17 16 13 13 9 16 22 11 5 9 11 11 9 13 16 17 16 15 17 20 23 27 30 29 29 31 29 26 23 13 7 8 10 15 16 16 13 7 7 8 7 14 15 16 16 13 23 18 2 6 7 11 25 36 41 39 38 38 38 38 38 39 40 39 37 39
29 29 28 28 29 28 28 27 27 25 24 23 23 21 19 18 21 23 21 15 13 14 16 15 12 11 10 19 22 14 14 15 17 16 13 18 21 20 21 19 17 17 15 17 22 26 29 31 29 25 26 20 14 15 13 11 9 6 6 5 5 5 5 11 15 14 10 15 28 17 3 7 6 15 31 38 43 41 36 37 37 36 37 38 39 39 37 36
30 29 29 28 29 28 27 28 26 25 24 22 21 22 20 20 24 22 13 9 13 18 20 14 10 8 10 22 23 12 12 15 20 20 17 21 24 22 23 23 19 17 14 12 14 22 29 31 27 19 20 22 19 14 8 6 4 2 4 4 4 5 4 7 13 16 11 13 27 17 4 6 5 19 35 38 42 41 35 36 37 36 37 37 38 39 39 36
30 30 29 28 29 28 27 28 25 23 23 21 21 22 20 22 25 16 7 8 15 24 22 11 7 6 7 13 13 7 10 10 13 17 22 25 25 23 22 22 21 18 16 13 11 19 27 27 23 21 19 16 11 8 5 5 4 3 4 4 4 5 4 4 5 15 16 11 17 15 6 3 5 19 35 39 40 38 33 34 36 37 37 38 37 38 39 36
30 30 29 28 28 27 28 27 24 22 21 20 22 23 21 24 23 11 6 9 20 28 21 7 4 7 11 9 7 6 4 2 4 6 19 26 28 25 20 22 24 21 19 16 13 18 24 22 18 17 16 10 5 5 5 6 6 4 3 3 5 4 5 5 3 8 16 10 10 15 10 5 11 18 28 35 39 35 32 33 36 36 37 39 38 39 40 38
31 30 29 28 27 28 28 27 24 20 20 20 22 24 23 25 20 6 4 13 25 27 14 5 2 3 9 11 11 9 4 4 7 6 12 22 28 25 20 24 26 24 21 17 16 21 20 16 12 8 7 8 6 7 7 7 6 5 4 3 4 4 5 8 6 5 12 13 12 14 12 8 17 22 25 33 38 34 32 34 37 37 38 39 39 40 41 41
31 30 30 29 28 28 28 27 23 19 20 20 22 25 25 30 21 1 4 20 25 16 7 7 8 4 10 16 18 15 12 14 14 10 11 19 28 26 20 22 27 27 20 12 13 19 15 8 8 7 7 11 10 9 8 5 5 6 6 4 5 5 5 8 8 6 10 12 12 12 13 10 17 24 26 32 38 35 33 35 35 37 38 39 39 41 43 42
31 31 30 30 29 28 27 27 22 17 19 20 24 27 28 33 19 2 18 33 26 18 21 24 22 22 26 30 29 22 21 21 16 14 13 18 26 26 22 21 23 24 15 7 9 16 14 6 8 11 10 12 12 10 7 4 6 6 6 6 7 7 7 9 9 8 9 10 11 14 15 13 14 22 24 32 36 30 30 32 33 36 38 40 41 42 44 44
31 30 31 30 29 28 26 25 20 16 18 18 22 25 25 28 16 12 31 40 35 25 26 34 31 34 35 36 33 24 20 18 15 17 14 17 24 22 20 19 14 12 13 10 9 11 12 8 12 14 9 9 11 10 7 6 8 8 6 7 6 7 9 11 11 10 8 7 10 14 15 15 13 19 23 28 28 24 29 32 32 37 38 40 43 43 46 46
32 30 30 30 29 28 25 23 19 15 15 14 19 23 23 25 19 20 26 28 40 35 23 28 29 34 37 37 36 26 18 14 17 21 15 14 22 21 16 16 9 7 11 11 7 7 9 12 15 12 7 7 9 10 11 10 10 8 7 5 6 6 6 9 11 10 8 6 8 12 15 14 11 20 24 25 24 26 37 40 38 42 39 38 43 43 45 45
32 31 30 30 29 28 24 21 17 15 15 13 18 23 25 28 22 24 23 15 29 34 21 16 17 25 29 29 28 22 16 14 16 22 19 13 19 25 17 11 9 8 10 12 10 9 8 12 13 9 7 9 9 11 13 11 9 8 8 6 6 7 5 7 8 7 6 7 8 12 14 10 7 16 22 28 31 32 41 45 44 46 45 44 47 47 47 45
32 30 29 30 30 28 24 18 15 17 17 14 19 23 26 28 22 27 26 9 13 21 14 8 4 10 13 13 12 11 16 17 17 21 21 14 17 25 18 10 11 9 10 15 15 13 10 6 11 12 11 11 11 11 12 10 8 10 11 9 8 10 10 11 8 3 3 7 9 12 11 6 7 15 17 23 28 29 35 37 36 40 45 47 47 47 48 48
32 30 29 29 28 28 24 16 17 22 20 17 21 24 26 24 21 28 23 5 6 10 6 7 5 9 11 14 14 7 14 17 21 24 22 16 15 17 14 12 12 8 11 16 15 14 12 7 14 16 13 12 12 11 12 11 7 10 14 14 13 13 12 13 9 4 3 6 7 11 9 5 6 17 19 17 17 19 24 26 27 34 38 40 42 43 46 48
32 30 30 28 25 26 22 18 22 25 22 22 24 25 25 21 22 28 16 1 4 6 3 9 6 12 18 21 22 9 7 11 21 27 25 21 17 14 11 10 9 8 10 12 9 8 10 10 12 14 15 15 13 11 13 12 7 8 13 15 15 14 14 13 7 3 4 4 6 10 11 5 4 12 19 19 17 17 19 19 24 31 34 37 40 43 46 47
31 30 30 27 22 22 22 21 24 26 24 24 25 24 24 24 25 23 8 2 4 5 6 11 8 13 25 31 22 3 4 7 13 24 29 28 22 16 12 8 7 8 8 7 7 6 9 12 12 13 16 14 12 11 12 14 9 8 10 13 14 13 15 15 7 4 5 3 5 7 9 7 5 10 17 21 21 18 17 18 19 25 33 38 41 43 46 48
29 28 28 26 18 16 20 22 25 28 25 24 25 24 25 28 23 12 2 1 4 5 5 10 11 17 34 41 18 8 8 13 3 14 27 31 26 17 10 10 9 7 8 9 8 6 10 14 14 14 14 11 12 12 12 14 11 6 8 11 14 14 15 14 7 5 5 4 5 6 7 7 4 7 15 19 19 17 18 20 18 23 33 38 40 44 47 49
28 26 27 25 15 11 16 20 26 27 23 23 24 26 29 27 14 3 3 0 3 8 9 12 15 21 34 37 16 4 15 17 10 13 19 25 27 18 9 9 10 7 10 12 9 5 8 15 18 14 11 9 11 12 12 14 12 7 7 9 11 14 14 11 7 6 6 5 7 7 6 6 5 5 11 14 15 16 17 19 18 24 35 38 40 45 47 47
28 25 24 22 14 12 14 18 25 24 22 23 23 29 31 18 4 3 2 1 2 9 12 12 15 21 27 23 14 15 16 12 19 24 15 15 22 22 14 13 12 7 8 10 11 9 7 15 20 15 12 9 9 12 14 14 12 8 8 9 8 9 9 7 5 5 5 6 10 10 8 7 5 4 9 13 15 18 17 16 17 22 32 38 41 44 45 46
30 24 21 17 13 12 14 19 25 23 21 23 27 33 26 8 3 3 2 3 3 8 11 10 13 19 21 16 12 16 15 10 20 23 12 7 11 14 9 10 10 7 5 6 8 10 10 12 11 13 18 15 8 11 14 15 14 9 7 8 7 5 5 4 3 4 6 6 8 9 9 7 5 5 6 12 18 23 21 19 20 20 27 36 40 42 45 48
32 24 16 13 11 10 13 17 23 25 23 25 30 31 15 4 3 0 2 7 4 5 9 9 13 15 15 12 9 13 12 9 14 16 11 8 4 7 7 6 5 5 7 6 4 5 10 13 8 9 19 20 11 8 10 12 13 10 7 7 6 4 4 5 4 3 5 6 7 8 8 5 6 6 7 10 15 20 21 22 26 25 28 37 40 42 46 48
35 24 12 10 9 8 11 14 20 26 25 26 29 21 6 4 3 2 3 5 3 5 7 9 13 13 12 9 8 11 9 7 14 15 12 13 9 2 6 7 6 6 7 5 4 4 6 10 12 11 11 16 15 8 6 9 10 10 9 7 6 6 5 6 5 3 4 6 7 7 6 4 5 6 8 11 13 16 19 25 34 37 37 41 43 45 46 47
35 23 11 7 7 8 10 12 18 22 22 25 23 11 5 2 2 3 4 3 3 7 7 8 12 11 8 6 7 11 7 5 14 14 11 12 10 8 6 5 3 4 5 3 5 6 6 6 11 13 6 9 15 11 8 8 9 11 9 7 6 6 6 5 4 4 4 4 6 5 5 5 5 5 8 10 11 16 24 31 39 44 46 47 47 45 45 46
33 20 9 6 8 10 11 13 18 18 18 21 14 4 3 1 1 2 3 3 4 7 8 9 10 8 7 6 6 11 7 6 13 12 9 10 7 7 8 8 12 13 7 2 1 3 9 8 5 10 9 7 12 12 11 10 8 10 8 7 8 6 5 3 3 4 4 2 4 4 4 5 5 5 6 5 5 10 22 29 32 36 41 43 42 41 43 45
32 17 8 8 9 11 15 18 19 17 16 13 7 1 0 2 1 1 3 5 5 6 9 8 6 4 6 6 6 11 9 7 10 9 7 8 6 8 8 7 13 16 12 4 4 2 5 8 4 8 13 13 14 11 12 12 7 6 8 9 7 6 6 4 4 2 4 4 5 4 4 3 2 6 6 3 5 4 13 19 22 28 34 35 35 39 42 44
35 17 9 14 17 16 17 18 17 18 15 7 3 2 2 2 1 1 2 5 6 6 6 5 5 4 6 7 7 12 12 7 9 8 6 6 4 9 9 7 13 16 15 9 4 3 5 7 6 9 14 18 21 16 12 14 10 6 10 9 5 5 4 4 2 2 3 5 5 4 6 4 2 5 7 5 7 6 8 15 19 25 29 29 32 38 42 44
37 15 8 16 23 18 14 13 14 16 11 3 1 4 2 1 2 2 2 5 6 5 3 2 3 4 6 7 7 11 12 8 8 7 5 5 3 10 11 7 11 17 21 17 5 3 6 6 7 11 12 12 18 16 11 13 14 10 8 8 7 5 6 6 4 4 5 4 3 4 6 5 4 5 6 7 10 10 9 13 18 21 23 27 33 38 42 45
35 13 6 18 24 15 12 14 15 11 4 2 2 3 2 1 3 7 5 4 3 4 2 2 2 2 3 6 8 9 10 8 8 6 4 5 4 8 13 9 12 18 25 19 7 5 6 3 5 8 8 6 8 10 8 11 13 10 6 8 8 6 6 6 3 4 4 4 4 3 4 5 5 6 8 11 13 13 12 11 15 19 23 31 36 39 42 43
35 13 4 22 25 14 14 15 11 5 2 1 2 1 3 2 6 11 9 7 3 1 2 3 3 3 2 5 7 7 7 7 8 6 4 7 6 5 12 14 13 18 22 15 7 8 6 2 4 7 7 6 4 7 11 12 9 8 7 8 9 4 3 4 2 3 5 3 4 4 4 6 6 7 12 16 14 14 15 12 13 19 29 38 41 42 44 45
32 11 7 24 26 18 18 13 9 5 1 1 1 1 5 5 7 10 12 14 7 1 3 3 3 4 2 4 6 6 6 6 6 6 4 7 7 3 12 18 15 17 17 10 7 8 5 3 4 6 6 5 6 7 11 15 12 8 6 7 10 6 5 5 5 3 4 4 4 5 4 7 7 7 11 16 15 14 16 14 12 19 32 40 43 45 47 47
25 9 10 27 26 20 16 10 8 8 2 5 7 6 7 7 7 11 12 14 9 3 4 4 4 5 3 4 6 6 6 4 4 4 4 7 7 5 13 22 20 18 14 7 7 10 8 3 4 6 5 8 14 14 10 12 13 10 6 6 9 7 6 8 8 5 6 5 3 4 3 6 7 7 10 14 15 16 19 16 12 19 33 40 43 47 48 49
22 15 16 26 22 16 12 5 6 7 3 9 14 12 13 10 8 12 12 10 7 3 4 4 3 4 4 4 6 7 8 4 4 3 5 6 7 9 14 21 22 17 11 6 7 11 9 3 3 6 6 9 14 13 11 11 12 11 8 6 8 9 9 8 6 5 6 7 5 3 4 6 7 5 8 13 16 17 20 20 17 20 31 39 43 47 47 47
21 18 19 24 21 20 13 3 4 5 4 11 13 12 15 13 10 12 10 8 6 3 3 3 2 4 4 4 5 6 6 3 2 1 4 4 5 8 13 19 20 13 7 7 8 9 8 3 3 6 5 5 7 5 5 6 6 7 8 10 10 13 12 6 4 5 5 8 9 5 4 7 7 4 4 9 15 16 14 18 23 25 30 38 43 46 46 46
16 11 16 26 23 20 14 7 4 4 6 10 11 10 12 11 11 15 12 8 8 7 4 3 5 6 5 4 5 6 4 1 2 2 1 4 5 6 12 18 18 13 10 13 12 9 5 3 3 4 3 3 5 4 2 5 4 4 8 14 14 14 13 7 4 5 6 7 7 6 5 7 8 8 8 4 11 13 9 14 23 30 36 39 41 43 42 42
10 4 10 22 20 16 15 14 11 6 5 7 7 7 9 8 10 16 14 9 14 15 8 4 7 8 6 6 6 6 6 6 6 1 1 3 4 4 11 17 16 15 14 14 15 9 3 3 4 5 6 6 7 9 10 9 8 8 11 14 16 14 12 9 5 5 7 5 6 8 7 8 8 8 9 4 6 10 9 11 16 26 36 40 41 41 40 41
6 2 4 10 11 11 15 17 15 9 6 7 5 4 8 8 7 11 11 9 15 17 9 4 7 6 5 8 6 4 6 8 8 4 1 3 4 5 12 16 13 13 13 13 14 8 2 4 6 7 10 12 13 17 18 14 12 13 15 15 17 16 13 12 8 6 7 7 5 9 8 9 9 7 8 5 6 9 9 9 13 23 34 39 42 42 41 41
4 3 4 4 4 5 7 11 14 11 9 8 4 3 6 8 7 8 9 9 14 14 7 4 6 7 7 7 4 3 6 6 5 4 1 2 5 5 8 11 10 12 16 12 10 6 2 4 6 9 16 19 17 17 16 13 13 14 14 13 16 19 17 14 10 8 9 8 7 9 9 11 9 7 9 8 6 8 8 13 21 28 34 37 39 40 40 40
3 3 4 4 4 5 8 13 16 12 8 7 4 3 6 8 8 8 8 8 9 10 8 5 6 10 10 8 4 3 5 4 3 4 3 3 4 3 4 6 6 11 14 9 7 6 2 4 7 11 17 19 17 14 12 9 9 11 11 9 9 18 19 14 11 9 8 8 9 9 10 12 10 8 9 8 5 6 8 15 24 28 30 33 35 37 38 39
3 2 5 7 6 7 10 12 11 7 6 6 3 2 5 5 7 9 9 8 7 6 7 7 8 9 9 9 6 3 3 4 4 7 6 5 3 0 1 2 3 8 12 7 6 6 3 4 9 10 11 13 13 11 13 12 10 10 9 8 4 12 18 14 11 9 6 6 6 8 9 9 7 2 3 2 7 10 9 10 17 25 31 33 34 36 39 40
4 4 7 8 5 5 7 7 7 5 3 3 2 3 4 4 6 7 9 10 8 5 7 9 9 7 6 7 7 5 5 5 7 12 13 12 9 3 3 3 3 7 9 6 6 6 4 4 7 7 7 8 9 12 17 16 12 9 6 8 7 4 10 7 6 6 6 5 3 6 7 7 4 3 5 6 9 10 7 6 11 22 31 34 34 34 37 40
8 8 8 6 4 4 4 4 5 4 2 3 5 5 5 6 7 6 6 8 9 11 13 13 9 6 4 5 7 10 11 11 13 18 20 21 20 14 11 10 8 7 6 5 6 6 4 4 4 5 5 7 10 15 16 12 7 4 3 8 9 3 6 10 8 5 2 2 5 6 6 6 5 7 9 8 9 8 5 6 10 18 25 30 32 32 34 39
Wind_Direction
4 3 1 359 358 356 355 354 353 352 348 345 343 342 341 340 340 338 337 333 326 318 319 321 317 311 298 292 286 282 282 278 276 267 263 269 258 229 217 204 189 196 195 181 178 182 180 184 185 178 182 189 197 209 209 215 215 202 198 219 238 241 218 224 209 166 150 143 160 165 167 169 179 196 196 189 167 153 156 159 156 155 149 152 155 154 153 154
4 2 0 359 357 355 355 353 353 352 348 346 343 342 340 340 340 337 336 333 327 319 316 316 316 312 301 293 287 285 285 284 283 270 265 284 269 227 212 200 179 190 199 191 188 189 187 187 182 175 182 192 203 211 211 213 211 198 152 198 223 224 209 222 208 149 138 150 165 170 171 180 186 188 187 173 161 158 152 145 139 129 134 143 150 153 154 158
3 1 359 357 355 353 352 351 351 349 347 345 342 341 340 340 338 337 336 332 327 319 314 313 313 312 303 294 288 286 289 294 289 278 278 275 239 209 199 199 186 190 202 202 199 194 195 194 181 176 184 196 206 211 213 213 210 201 187 216 236 228 236 252 211 144 140 150 159 171 179 189 180 180 186 163 158 168 156 144 140 133 138 145 152 156 158 161
1 359 357 355 353 351 350 350 349 347 346 344 342 340 339 339 337 336 335 332 327 319 314 311 309 311 306 295 288 288 296 304 292 275 318 280 226 197 188 190 189 194 198 203 206 197 197 197 182 179 186 203 214 214 218 218 206 190 195 222 236 220 229 248 214 150 150 150 155 170 182 196 178 187 199 167 159 180 167 158 153 147 149 151 156 160 161 163
360 357 355 354 352 350 349 349 348 347 345 343 341 339 337 337 335 334 333 331 326 318 315 309 308 311 303 294 288 284 298 320 278 194 122 13 216 196 186 183 186 193 193 193 203 199 195 193 180 180 191 207 214 218 227 221 211 197 211 224 233 220 210 234 213 173 164 156 152 161 174 189 181 196 203 177 171 193 174 164 158 155 156 156 159 162 162 165
358 356 355 353 351 349 348 348 347 346 345 344 342 338 336 335 332 331 330 330 324 316 314 307 306 306 302 296 286 273 248 271 207 169 148 117 186 192 183 182 180 184 189 186 193 194 189 188 182 186 199 208 209 218 229 219 215 230 232 230 236 231 227 227 208 196 183 167 153 160 182 185 177 204 204 190 185 182 172 165 161 160 161 160 161 163 164 168
357 355 354 352 350 349 348 348 347 346 346 345 343 339 336 332 329 327 325 327 321 315 312 304 303 298 301 290 279 268 239 256 243 188 166 115 135 182 179 181 179 180 187 185 187 188 187 190 188 192 198 207 212 222 233 223 218 231 249 243 242 233 228 222 208 203 193 187 174 164 178 180 174 196 200 196 177 164 164 163 162 161 160 161 163 166 168 170
357 355 353 352 350 349 348 348 347 346 345 344 343 340 336 331 326 324 322 323 320 316 309 301 298 289 294 285 275 268 249 267 249 184 185 119 107 167 178 179 182 184 187 187 187 185 189 195 196 195 196 214 214 221 229 228 226 229 241 244 245 233 227 219 205 200 193 199 194 164 158 181 183 186 186 189 163 154 159 159 160 159 159 163 166 168 170 172
357 354 353 352 350 349 347 348 347 345 345 343 342 340 337 331 326 325 321 323 323 316 308 297 292 282 281 272 247 269 265 281 156 178 185 146 112 153 178 177 180 184 187 189 189 186 190 198 203 200 201 217 218 230 229 225 229 226 235 242 243 229 220 211 198 199 199 202 198 171 166 190 188 183 182 187 160 153 157 156 158 159 161 165 168 171 172 173
358 356 355 353 352 350 348 348 347 344 344 342 342 340 337 332 328 326 323 327 325 316 311 298 286 277 271 249 187 244 270 112 147 181 185 183 163 153 179 181 180 182 185 187 188 189 192 198 203 204 216 225 221 230 228 225 234 231 238 245 245 232 213 200 194 199 201 201 193 178 181 189 184 178 188 182 160 153 154 155 159 161 163 167 169 173 176 176
359 358 356 354 354 352 350 350 347 344 343 342 344 342 338 335 333 329 326 328 323 316 312 301 289 271 261 229 202 226 238 140 152 185 189 204 190 174 182 189 190 189 187 187 190 194 195 198 198 203 220 232 227 235 235 233 240 246 248 254 250 238 214 198 195 193 189 198 194 184 178 174 176 180 165 159 157 155 154 155 161 164 166 170 170 173 177 180
358 358 356 354 353 353 351 350 348 344 343 345 345 344 341 341 340 332 328 326 318 315 308 304 293 265 258 239 227 228 192 168 176 190 201 225 213 202 198 196 202 203 200 199 200 201 200 199 200 206 219 227 231 243 247 237 238 247 248 261 261 246 219 202 202 187 177 196 194 184 168 165 173 182 160 154 156 157 155 156 162 166 169 172 174 174 177 182
356 357 356 353 353 354 350 350 348 345 346 347 347 349 347 346 345 334 328 322 317 320 312 306 290 262 252 245 243 251 266 240 242 249 234 221 217 216 215 209 211 211 212 214 212 208 201 200 204 216 229 241 252 238 256 256 246 246 240 245 254 255 234 207 206 188 179 196 189 176 176 201 188 170 160 157 157 155 155 159 163 167 170 174 178 179 178 181
355 356 356 353 354 353 349 350 349 346 348 348 349 351 348 347 346 335 328 329 340 349 334 316 290 264 238 248 263 275 271 265 253 238 212 209 211 210 213 214 219 216 217 223 220 212 203 203 210 223 237 249 264 257 267 275 261 251 243 243 219 233 250 207 199 190 186 190 178 168 208 220 203 166 162 161 160 158 158 162 164 167 171 174 179 184 185 184
355 355 356 354 353 353 350 350 349 347 348 350 349 349 346 345 344 337 334 359 10 360 344 326 295 271 252 266 280 273 243 243 232 213 189 202 209 208 210 210 213 211 214 226 223 213 207 208 213 225 243 250 257 263 273 274 269 251 239 261 213 205 256 221 197 187 187 183 172 168 216 212 192 168 166 166 163 161 161 164 166 168 171 175 179 184 189 189
354 354 356 354 353 355 352 351 351 346 348 353 348 345 344 342 345 341 328 354 353 346 340 325 297 285 269 283 290 248 220 236 235 207 189 197 204 205 207 208 209 203 211 225 215 209 210 211 217 225 238 249 247 238 253 267 276 247 208 244 228 195 228 246 213 187 182 180 173 179 205 178 164 169 167 167 166 163 163 165 168 170 173 176 180 184 189 191
354 354 355 354 354 356 354 353 354 345 347 353 347 346 343 342 349 338 309 339 334 332 328 295 293 292 260 267 285 260 238 271 302 225 197 199 200 198 203 211 209 200 208 218 207 204 208 211 218 226 231 238 227 196 223 240 240 251 207 227 236 198 207 218 250 199 181 180 184 193 212 166 149 167 169 169 168 165 166 168 170 172 175 178 181 184 187 190
354 353 354 354 353 357 355 354 355 346 344 351 349 347 345 350 358 336 296 334 324 325 323 235 170 307 262 261 269 264 269 287 296 273 212 205 201 197 206 212 204 196 201 210 211 208 209 213 216 225 227 222 216 194 208 221 213 229 213 218 243 217 220 214 216 204 178 186 195 198 218 183 153 167 176 175 172 167 170 172 172 174 176 178 181 184 188 191
352 351 352 353 352 356 355 353 356 347 342 348 345 345 353 0 7 80 297 324 316 315 306 222 194 236 274 276 275 272 280 286 287 269 216 204 205 206 210 208 199 191 190 197 208 208 204 206 212 218 223 215 215 208 210 222 206 213 213 216 240 226 233 230 220 203 175 188 202 200 215 203 164 170 177 177 174 171 173 174 174 176 178 179 181 185 188 192
351 349 350 351 350 353 354 353 357 350 345 350 347 354 6 5 8 4 320 315 297 279 273 263 245 249 266 272 277 287 289 284 279 258 218 199 206 211 211 205 195 188 188 189 195 203 200 201 221 218 218 213 218 218 207 228 239 235 224 226 240 234 237 238 233 223 183 181 207 203 211 216 177 171 175 173 172 172 174 176 178 179 178 180 182 185 188 192
350 348 347 349 348 351 354 353 355 354 352 354 358 10 15 6 1 331 327 316 305 295 271 269 261 253 262 268 273 289 300 292 269 242 216 205 208 208 207 201 191 190 193 185 182 198 200 217 230 218 215 212 212 217 210 225 246 249 238 233 242 238 240 239 236 232 196 187 215 203 208 221 186 170 174 170 172 176 177 178 181 181 180 181 184 186 189 193
349 346 346 347 346 350 352 350 352 355 351 353 2 11 9 359 349 331 330 314 310 313 287 279 270 256 263 268 269 278 287 281 262 238 214 212 212 201 198 196 192 202 187 179 185 190 202 228 228 210 201 206 201 207 214 225 237 247 248 239 242 240 257 259 248 238 205 194 217 199 205 224 190 169 171 170 177 181 181 182 182 181 180 181 184 186 189 191
348 344 344 346 345 347 352 350 349 350 347 352 357 360 356 349 346 339 336 305 302 313 313 301 272 258 266 268 268 268 257 249 257 244 218 212 212 197 197 196 192 204 185 181 193 186 205 229 217 197 196 203 202 200 206 221 229 237 241 233 243 241 244 258 251 240 217 207 206 194 202 220 179 164 169 175 181 183 185 185 182 181 180 182 186 187 188 189
346 343 343 346 344 346 353 350 346 348 347 353 353 352 351 347 349 345 335 301 286 309 333 358 311 286 290 299 297 253 240 240 241 238 217 213 215 199 201 202 191 208 197 188 196 204 225 211 173 189 209 205 207 204 199 211 222 233 237 229 237 239 232 241 252 284 275 244 212 187 197 222 169 161 172 181 183 185 188 185 183 184 183 183 185 187 188 190
346 343 341 345 344 344 352 353 347 350 348 350 350 349 353 352 350 345 334 304 279 292 343 29 28 7 5 6 352 258 237 249 239 236 226 219 215 198 204 207 196 213 204 193 195 213 236 203 166 187 209 210 212 210 201 202 210 230 234 229 230 238 242 245 254 284 304 282 230 178 182 239 186 168 176 183 186 190 188 184 186 187 185 183 183 187 190 191
346 343 339 344 345 341 353 1 352 351 348 348 350 350 354 354 347 341 335 353 308 270 345 7 6 4 2 354 337 287 230 270 254 248 242 232 222 203 201 203 204 216 201 194 200 214 229 207 181 188 200 209 216 217 209 200 200 225 229 229 229 237 250 253 255 239 228 268 246 189 181 213 211 182 181 180 185 190 187 188 189 185 183 184 185 187 190 192
346 343 338 343 345 344 358 6 358 356 350 345 349 351 352 349 342 339 339 117 326 298 353 2 2 353 349 344 335 237 179 311 259 245 242 234 231 222 213 200 201 214 189 186 214 207 200 201 201 201 198 205 215 216 209 200 204 222 219 228 236 237 246 251 253 239 234 277 283 229 196 193 203 197 189 183 185 188 187 190 190 185 184 186 187 188 190 192
344 342 337 340 347 350 358 3 359 356 352 349 351 351 348 343 338 340 34 143 330 354 358 348 352 348 347 348 350 184 264 321 305 239 236 228 229 231 227 208 196 210 196 197 216 189 184 200 205 207 205 205 212 212 204 203 216 221 196 215 234 239 247 250 250 254 257 286 295 261 212 208 225 203 191 186 185 185 189 191 190 188 188 188 187 189 191 192
343 340 336 338 344 351 355 360 356 354 356 355 352 348 343 340 339 16 88 318 346 20 1 346 353 346 344 348 2 25 314 314 327 294 250 225 226 228 235 219 200 214 217 215 222 190 185 202 202 211 219 207 210 213 202 206 219 220 204 214 226 235 245 245 237 246 250 251 255 246 213 224 253 208 186 186 187 187 192 194 191 191 190 189 189 190 192 191
344 338 336 336 340 350 356 0 359 359 0 357 351 347 344 342 9 74 52 312 351 6 355 358 358 342 341 345 350 2 347 329 342 329 288 232 223 223 236 237 218 219 232 227 224 222 221 206 199 209 224 209 202 209 206 210 212 205 214 231 238 241 249 246 225 219 226 242 245 233 212 216 252 243 191 186 187 186 191 196 194 193 192 191 190 190 190 190
346 338 336 335 338 351 353 358 5 6 359 357 351 347 346 355 79 88 21 326 325 358 358 360 355 345 347 352 344 349 348 346 2 353 321 265 223 213 222 234 221 216 241 246 230 229 234 223 204 206 214 207 197 206 207 208 207 201 204 219 239 261 274 268 217 183 205 238 248 222 206 211 236 258 215 196 192 186 186 192 192 192 193 193 192 190 189 190
349 341 337 336 336 353 352 349 359 359 354 355 348 343 350 38 39 102 322 333 325 1 5 349 346 345 341 344 347 347 345 346 1 1 346 332 282 204 197 206 197 205 230 240 247 231 225 229 229 215 212 206 201 208 205 204 204 203 203 201 211 226 243 238 216 200 206 232 246 201 188 218 233 236 216 201 204 197 190 189 188 190 192 193 193 191 191 191
351 346 342 337 330 345 354 347 351 351 349 349 343 341 23 90 18 331 322 346 352 348 355 342 336 335 331 338 354 351 350 3 2 358 353 351 351 303 227 218 193 203 221 212 216 234 233 230 225 227 220 203 204 204 191 203 199 196 203 196 192 197 211 223 228 232 202 224 244 197 175 227 242 246 220 198 206 205 198 192 188 189 191 192 193 192 191 192
353 350 344 346 343 341 349 347 346 346 345 347 345 355 64 77 346 353 340 341 343 337 344 340 329 326 331 341 8 13 8 4 5 0 354 357 5 12 340 302 293 273 256 207 196 212 232 237 216 222 218 183 205 210 180 183 192 201 203 188 194 197 192 201 208 211 199 228 248 200 184 205 192 232 227 204 203 193 191 195 192 191 192 192 193 192 190 191
353 356 354 8 13 2 358 351 346 342 340 349 357 29 75 66 274 343 346 334 336 340 337 333 330 331 352 352 7 25 24 355 2 1 360 3 6 16 4 354 9 9 359 328 278 223 229 237 212 217 219 189 208 211 181 173 190 205 195 186 209 196 163 183 210 190 152 171 243 212 203 208 191 243 251 227 236 188 180 190 192 194 195 191 190 191 190 191
355 8 39 39 23 9 354 345 343 334 333 358 23 20 254 177 208 325 346 354 342 331 327 333 347 346 351 350 350 7 6 356 3 2 356 353 356 19 15 13 23 23 26 10 287 294 242 236 208 205 217 216 216 209 186 185 182 187 196 203 202 163 149 194 244 240 123 163 240 238 235 276 273 266 274 231 247 216 171 178 186 192 194 190 189 191 191 191
355 6 55 38 13 358 340 333 333 321 322 16 83 269 258 181 74 30 353 2 337 322 331 339 8 11 350 345 344 355 358 6 11 4 349 337 357 26 18 15 25 21 16 360 280 311 331 276 250 222 219 217 216 215 208 195 170 162 201 198 146 122 162 176 204 259 159 185 254 263 242 254 201 246 274 230 221 238 187 175 183 189 188 188 190 192 193 193
355 358 72 29 358 348 344 342 337 314 309 43 157 277 290 184 58 31 358 11 338 321 347 331 359 25 358 343 334 349 2 9 6 359 349 340 7 32 27 4 8 11 0 350 322 320 335 305 276 251 235 220 209 210 223 210 192 188 191 168 145 167 197 177 175 203 186 191 258 284 253 229 194 221 259 229 215 230 217 184 182 187 185 186 190 193 194 194
358 2 70 12 351 347 352 347 342 319 290 87 240 266 295 241 13 351 343 30 2 332 341 307 4 24 349 340 330 348 7 2 357 355 353 1 353 27 36 11 343 356 356 349 338 322 324 312 288 271 266 264 211 196 215 217 204 195 170 160 172 187 186 176 178 174 163 184 214 260 261 239 228 213 219 229 219 215 218 195 180 185 185 186 189 192 194 195
1 357 3 359 353 347 344 347 354 345 182 173 228 238 331 321 354 348 2 37 45 43 347 296 350 358 333 343 334 353 10 352 357 353 337 6 355 5 37 21 343 343 348 346 343 335 338 2 299 299 320 312 237 198 207 210 207 193 173 178 188 179 151 173 208 167 145 161 185 195 237 248 245 216 215 228 223 212 214 201 180 184 186 187 189 191 193 194
1 346 320 358 3 354 355 16 25 359 203 241 281 27 2 350 340 346 20 32 24 47 4 331 350 351 341 353 348 4 1 341 7 6 336 6 8 358 17 8 349 342 342 344 359 347 343 2 298 294 329 306 259 248 216 205 208 198 177 186 191 175 144 175 231 232 169 164 167 174 221 255 245 217 214 223 220 216 215 202 181 184 186 186 189 192 194 194
360 333 333 1 4 359 8 41 22 354 17 1 349 1 3 358 345 346 12 23 12 3 7 358 355 358 5 3 353 352 341 343 40 24 326 341 346 327 345 349 348 346 339 332 341 330 317 309 271 268 282 265 265 278 263 226 216 202 185 187 189 178 157 179 212 215 191 204 199 173 212 264 253 208 202 219 220 215 214 204 180 181 184 185 189 194 195 194
350 330 343 359 4 16 32 54 8 1 19 1 356 359 360 1 2 356 356 3 1 356 6 359 348 10 27 9 355 343 338 4 69 21 319 320 326 320 331 343 346 344 342 336 332 329 327 338 309 293 285 269 266 275 284 259 223 205 201 184 184 193 185 182 190 174 181 207 211 212 238 266 273 222 196 219 221 216 213 200 177 173 180 184 189 195 196 194
341 327 337 356 21 49 52 35 356 352 350 1 359 0 2 359 358 352 337 334 350 357 355 345 357 30 26 2 357 346 348 36 123 324 314 298 309 322 332 341 341 338 335 328 329 336 338 350 347 324 314 294 274 270 306 289 237 217 210 192 194 200 188 164 139 154 192 211 196 194 232 251 272 285 265 231 216 215 209 186 171 168 176 185 190 195 195 193
343 328 331 350 21 55 50 26 14 347 347 0 354 355 0 352 346 343 330 334 360 358 336 342 20 24 9 358 351 339 350 16 216 204 226 284 307 322 329 336 335 325 310 315 328 338 321 292 309 314 308 285 256 235 312 321 309 293 232 206 198 191 184 168 126 159 204 218 199 194 226 258 284 313 320 267 195 195 181 166 168 169 175 184 190 193 193 190
348 340 332 344 5 34 27 15 18 13 354 352 348 351 351 339 338 343 346 2 3 353 341 352 15 13 0 2 356 336 336 322 310 329 157 304 316 307 321 328 324 312 310 328 345 342 289 268 270 258 268 281 277 278 292 301 294 292 277 235 203 183 182 174 145 174 187 179 206 211 217 251 278 303 307 287 169 166 153 150 164 170 175 182 187 191 190 188
350 3 357 343 346 4 4 1 6 4 332 329 333 322 333 339 339 344 355 3 353 351 354 8 13 14 5 1 352 327 330 325 326 343 355 313 303 293 317 318 310 321 341 352 350 339 288 293 284 271 287 289 284 282 282 281 269 269 285 261 212 184 178 180 181 193 166 148 219 231 212 229 254 272 274 254 163 152 148 149 162 168 174 180 184 186 187 187
0 334 4 4 340 353 352 337 333 325 317 329 324 288 334 354 352 348 352 348 345 349 354 358 9 11 355 344 340 321 323 327 333 330 282 286 296 309 326 309 303 349 3 354 344 345 300 283 291 309 312 300 288 282 274 271 264 257 270 267 221 191 183 189 195 189 162 161 213 225 206 215 234 244 253 252 200 169 152 155 165 169 174 180 182 183 185 185
1 311 323 349 334 300 292 297 302 304 319 330 316 324 360 3 355 347 341 335 336 341 344 343 352 354 341 325 319 313 316 331 334 307 275 272 295 324 348 310 307 347 351 340 341 353 312 274 309 322 315 301 288 287 292 299 294 268 268 286 240 201 193 192 190 182 179 191 202 194 195 216 228 222 234 243 197 150 131 146 160 165 171 177 178 180 183 184
344 336 317 325 315 286 288 298 302 306 321 317 307 355 356 346 345 341 330 320 311 321 347 345 331 333 331 323 318 299 319 342 312 297 296 290 290 196 133 276 285 319 332 336 338 342 324 302 321 325 316 298 286 306 327 323 307 285 288 342 334 208 199 198 193 182 189 217 204 168 181 224 253 226 204 168 116 106 100 126 154 164 169 173 177 179 182 184
276 288 306 314 309 291 295 303 306 305 302 293 313 344 332 325 334 330 313 306 306 322 337 325 314 316 322 326 320 298 314 331 303 302 307 295 282 241 181 193 253 299 325 331 315 322 320 302 319 330 320 292 294 330 333 317 310 309 323 13 10 217 194 193 191 176 186 201 159 137 174 229 259 88 84 77 86 90 88 99 141 165 172 173 176 179 181 183
280 285 304 311 298 291 295 297 304 306 289 307 331 332 312 301 314 330 322 309 316 323 315 302 300 312 307 301 300 293 303 312 303 302 300 287 275 260 232 219 228 254 282 298 298 302 295 291 316 330 314 286 300 323 323 316 331 339 341 3 349 343 76 52 29 14 344 167 147 165 201 220 188 122 98 79 75 76 65 75 119 154 170 175 175 177 180 184